This demonstration page uses our WeatherBlox Daily Observations layout. Learn more.

Left ArrowRight Arrow

Hourly Observations for May 13, 2018

Temp ( °F °C ) Dew Point ( °F °C ) Humidity (%) Winds ( mph kmh ) Pressure ( in mb ) Visibility ( mi km ) Precip ( " mm )
12:53 am 00:53 Mostly Cloudy with Mist and Fog 48 8.9 48 8.9 100 100 NNE 10 17 30.03 1017 1 1 0.00 0.00
1:26 am 01:26 Mostly Cloudy with Mist and Fog 48 8.9 48 8.9 100 100 NNE 10 17 30.06 1018 1 2 0.00 0.00
1:53 am 01:53 Mostly Cloudy with Mist and Fog 48 8.9 48 8.9 100 100 NNE 12 19 30.02 1017 1 2 0.00 0.00
2:03 am 02:03 Mostly Cloudy with Mist and Fog 48 8.9 48 8.9 100 100 NNE 12 19 30.03 1017 1 1 0.00 0.00
2:11 am 02:11 Mostly Cloudy with Mist and Fog 48 8.9 48 8.9 100 100 NNE 12 19 30.03 1017 1 2 0.00 0.00
2:19 am 02:19 Mostly Cloudy with Mist and Fog 48 8.9 48 8.9 100 100 NNE 12 19 30.03 1017 1 1 0.00 0.00
2:28 am 02:28 Cloudy with Mist and Fog 48 9 48 9 100 100 NNE 10 17 30.03 1017 1 2 0.00 0.00
2:53 am 02:53 Cloudy with Mist and Fog 48 8.9 48 8.9 100 100 NNE 10 17 29.99 1016 2 3 0.00 0.00
2:58 am 02:58 Cloudy with Mist and Fog 48 9 48 9 100 100 NNE 12 19 30.03 1017 3 5 0.00 0.00
3:05 am 03:05 Cloudy with Mist and Fog 48 8.9 48 8.9 100 100 NNE 13 20 30.00 1016 2 3 0.00 0.00
3:22 am 03:22 Cloudy with Mist and Fog 48 9 48 9 100 100 NNE 13 20 30.00 1016 3 4 0.00 0.00
3:29 am 03:29 Cloudy with Mist and Fog 48 8.9 48 8.9 100 100 NE 12 19 30.00 1016 3 5 0.00 0.00
3:36 am 03:36 Cloudy with Mist and Fog 48 9 48 9 100 100 NNE 9 15 30.00 1016 2 3 0.00 0.00
3:53 am 03:53 Cloudy with Mist and Fog 48 8.9 48 8.9 100 100 NNE 13 20 29.97 1015 2 3 0.00 0.00
4:04 am 04:04 Cloudy with Mist and Fog 48 9 48 9 100 100 NNE 10 17 30.00 1016 3 4 0.00 0.00
4:13 am 04:13 Cloudy with Mist and Fog 48 8.9 48 8.9 100 100 NE 9 15 30.00 1016 3 5 0.00 0.00
4:29 am 04:29 Cloudy with Mist and Fog 49 9.4 49 9.4 100 100 NE 8 13 30.00 1016 3 4 0.00 0.00
4:53 am 04:53 Cloudy with Mist and Fog 49 9.4 49 9.4 100 100 NE 12 19 29.96 1015 2 3 0.00 0.00
5:53 am 05:53 Cloudy with Mist and Fog 49 9.4 49 9.4 100 100 NE 8 13 29.97 1015 1 2 0.00 0.00
6:12 am 06:12 Mostly Cloudy with Mist and Fog 48 9 48 9 100 100 NE 6 9 30.00 1016 1 1 0.00 0.00
6:53 am 06:53 Mostly Cloudy with Fog 49 9.4 49 9.4 100 100 N 13 20 30.02 1017 1 1 0.00 0.00
7:27 am 07:27 Cloudy with Mist and Fog 49 9.4 49 9.4 100 100 N 13 20 30.06 1018 2 3 0.00 0.00
7:36 am 07:36 Cloudy with Mist and Fog 48 9 48 9 100 100 N 13 20 30.06 1018 3 5 0.00 0.00
7:53 am 07:53 Cloudy with Mist and Fog 49 9.4 49 9.4 100 100 NNE 12 19 30.03 1017 6 10 0.00 0.00
8:04 am 08:04 Cloudy with Mist and Fog 48 9 48 9 100 100 NNE 9 15 30.06 1018 6 10 0.00 0.00
8:53 am 08:53 Cloudy 49 9.4 49 9.4 100 100 ENE 10 17 30.03 1017 8 13 0.00 0.00
9:29 am 09:29 Cloudy with Mist and Fog 50 10 50 10 100 100 ENE 10 17 30.03 1017 6 10 0.00 0.00
9:53 am 09:53 Cloudy 51 10.6 51 10.6 100 100 E 12 19 29.99 1016 7 11 0.00 0.00
10:53 am 10:53 Cloudy with Mist and Fog 52 11.1 52 11.1 100 100 E 9 15 30.00 1016 6 10 0.00 0.00
11:53 am 11:53 Cloudy with Mist and Fog 54 12.2 53 11.7 97 97 ESE 8 13 30.00 1016 4 6 0.00 0.00
12:15 pm 12:15 Cloudy with Mist and Fog 55 12.8 54 12.2 96 96 NE 6 9 30.00 1016 3 5 0.00 0.00
12:53 pm 12:53 Cloudy with Mist and Fog 56 13.3 54 12.2 93 93 Calm 30.00 1016 3 5 0.00 0.00
1:53 pm 13:53 Cloudy with Mist and Fog 58 14.4 55 12.8 90 90 N 5 7 29.96 1015 4 6 0.00 0.00
2:53 pm 14:53 Cloudy with Mist and Fog 59 15 56 13.3 90 90 NNW 7 11 29.96 1014 5 8 0.00 0.00
3:42 pm 15:42 Cloudy 61 16 57 14 88 88 N 9 15 29.91 1013 7 11 0.00 0.00
3:53 pm 15:53 Cloudy with Mist and Fog 61 16.1 57 13.9 87 87 N 10 17 29.95 1014 6 10 0.00 0.00
4:53 pm 16:53 Cloudy 63 17.2 58 14.4 84 84 N 12 19 29.93 1014 7 11 0.00 0.00
5:53 pm 17:53 Cloudy with Haze 62 16.7 57 13.9 84 84 N 13 20 29.93 1013 6 10 0.00 0.00
6:53 pm 18:53 Cloudy with Mist and Fog 59 15 57 13.9 93 93 N 10 17 29.93 1014 6 10 0.00 0.00
7:53 pm 19:53 Cloudy 57 13.9 56 13.3 96 96 N 10 17 29.94 1014 7 11 0.00 0.00
8:53 pm 20:53 Cloudy 57 13.9 56 13.3 96 96 N 10 17 29.93 1014 7 11 0.00 0.00
9:53 pm 21:53 Mostly Cloudy 56 13.3 55 12.8 97 97 N 6 9 29.95 1014 7 11 0.00 0.00
10:09 pm 22:09 Partly Cloudy 55 12.8 55 12.8 100 100 N 7 11 29.94 1014 7 11 0.00 0.00
10:53 pm 22:53 Mostly Cloudy with Mist and Fog 55 12.8 55 12.8 100 100 NNE 7 11 29.95 1014 6 10 0.00 0.00
11:17 pm 23:17 Mostly Cloudy 56 13.3 55 12.8 97 97 NNE 8 13 29.94 1014 7 11 0.00 0.00
11:53 pm 23:53 Cloudy with Mist and Fog 56 13.3 55 12.8 97 97 N 9 15 29.93 1014 6 10 0.00 0.00

Powered by AerisWeather